• în Republica Moldova
  • Lista ţărilor
  • Pe 7 zile
  • Temperatura apei
  • Hartă satelitară
  • Meteo pe hartă
  • Widget-uri
  • user-avatar
    Intrare

    Meteo pe oră la Klagenfurt

    Astăzi, 23 Septembrie, Sâmbătă

    Timp Temperatura Precipitaţii Vânt Presiune Umiditate
    00:00 +8°C° 0 mm 1 m/s 693 mmHg 89%
    01:00 +8°C° 0 mm 1 m/s 693 mmHg 88%
    02:00 +8°C° 0 mm 1 m/s 693 mmHg 88%
    03:00 +7°C° 0 mm 1 m/s 693 mmHg 89%
    04:00 +7°C° 0 mm 1 m/s 692 mmHg 89%
    05:00 +8°C° 0 mm 1 m/s 692 mmHg 87%
    06:00 +8°C° 0 mm 1 m/s 693 mmHg 85%
    07:00 +9°C° 0 mm 1 m/s 693 mmHg 84%
    08:00 +11°C° 0 mm 0 m/s 693 mmHg 74%
    09:00 +14°C° 0 mm 0 m/s 694 mmHg 65%
    10:00 +17°C° 0 mm 0 m/s 694 mmHg 56%
    11:00 +20°C° 0 mm 1 m/s 694 mmHg 54%
    12:00 +21°C° 0 mm 1 m/s 694 mmHg 52%
    13:00 +22°C° 0 mm 1 m/s 694 mmHg 49%
    14:00 +21°C° 0,1 mm 1 m/s 693 mmHg 54%
    15:00 +20°C° 0,1 mm 1 m/s 693 mmHg 59%
    16:00 +19°C° 0,1 mm 1 m/s 692 mmHg 64%
    17:00 +16°C° 0,5 mm 1 m/s 692 mmHg 73%
    18:00 +14°C° 0,5 mm 1 m/s 692 mmHg 81%
    19:00 +12°C° 0,5 mm 1 m/s 692 mmHg 90%
    20:00 +12°C° 0,3 mm 1 m/s 692 mmHg 91%
    21:00 +11°C° 0,3 mm 1 m/s 692 mmHg 93%
    22:00 +10°C° 0,3 mm 0 m/s 692 mmHg 94%
    23:00 +10°C° 0,2 mm 0 m/s 692 mmHg 94%

    Mâine, 24 Septembrie, Duminică

    Timp Temperatura Precipitaţii Vânt Presiune Umiditate
    00:00 +10°C° 0,2 mm 0 m/s 692 mmHg 95%
    01:00 +9°C° 0,2 mm 0 m/s 692 mmHg 95%
    02:00 +9°C° 0,3 mm 0 m/s 692 mmHg 95%
    03:00 +9°C° 0,3 mm 0 m/s 692 mmHg 95%
    04:00 +9°C° 0,3 mm 0 m/s 692 mmHg 95%
    05:00 +9°C° 0,2 mm 0 m/s 692 mmHg 95%
    06:00 +10°C° 0,2 mm 1 m/s 692 mmHg 94%
    07:00 +10°C° 0,2 mm 1 m/s 692 mmHg 93%
    08:00 +11°C° 0,1 mm 1 m/s 692 mmHg 89%
    09:00 +12°C° 0,1 mm 1 m/s 693 mmHg 86%
    10:00 +14°C° 0,1 mm 1 m/s 693 mmHg 82%
    11:00 +14°C° 0,2 mm 1 m/s 693 mmHg 80%
    12:00 +14°C° 0,2 mm 1 m/s 693 mmHg 78%
    13:00 +15°C° 0,2 mm 1 m/s 693 mmHg 76%
    14:00 +14°C° 0,4 mm 1 m/s 693 mmHg 78%
    15:00 +14°C° 0,4 mm 1 m/s 692 mmHg 80%
    16:00 +14°C° 0,4 mm 1 m/s 692 mmHg 82%
    17:00 +13°C° 0,2 mm 1 m/s 692 mmHg 86%
    18:00 +12°C° 0,2 mm 1 m/s 692 mmHg 91%
    19:00 +10°C° 0,2 mm 1 m/s 692 mmHg 95%
    20:00 +10°C° 0,1 mm 1 m/s 692 mmHg 95%
    21:00 +10°C° 0,1 mm 1 m/s 692 mmHg 96%
    22:00 +10°C° 0,1 mm 1 m/s 693 mmHg 96%
    23:00 +10°C° 0,1 mm 1 m/s 692 mmHg 96%

    Poimâine, 25 Septembrie, Luni

    Timp Temperatura Precipitaţii Vânt Presiune Umiditate
    00:00 +9°C° 0,1 mm 1 m/s 692 mmHg 96%
    01:00 +9°C° 0,1 mm 1 m/s 692 mmHg 96%
    02:00 +9°C° 0,1 mm 1 m/s 692 mmHg 96%
    03:00 +9°C° 0,1 mm 1 m/s 692 mmHg 96%
    04:00 +9°C° 0,1 mm 1 m/s 692 mmHg 96%
    05:00 +9°C° 0,1 mm 1 m/s 692 mmHg 96%
    06:00 +9°C° 0,1 mm 1 m/s 692 mmHg 95%
    07:00 +9°C° 0,1 mm 1 m/s 692 mmHg 94%
    08:00 +10°C° 0,2 mm 1 m/s 692 mmHg 91%
    09:00 +12°C° 0,2 mm 1 m/s 692 mmHg 87%
    10:00 +13°C° 0,2 mm 1 m/s 693 mmHg 83%
    11:00 +13°C° 0,2 mm 1 m/s 693 mmHg 79%
    12:00 +14°C° 0,2 mm 1 m/s 693 mmHg 75%
    13:00 +15°C° 0,2 mm 1 m/s 693 mmHg 71%
    14:00 +15°C° 0,1 mm 1 m/s 693 mmHg 73%
    15:00 +14°C° 0,1 mm 1 m/s 693 mmHg 74%
    16:00 +14°C° 0,1 mm 1 m/s 692 mmHg 76%
    17:00 +12°C° 0 mm 1 m/s 692 mmHg 82%
    18:00 +11°C° 0 mm 1 m/s 692 mmHg 89%
    19:00 +9°C° 0 mm 1 m/s 692 mmHg 95%
    20:00 +9°C° 0 mm 1 m/s 693 mmHg 95%
    21:00 +9°C° 0 mm 1 m/s 693 mmHg 96%
    22:00 +9°C° 0 mm 1 m/s 693 mmHg 96%
    23:00 +8°C° 0 mm 1 m/s 693 mmHg 96%

    26 Septembrie, Marţi

    Timp Temperatura Precipitaţii Vânt Presiune Umiditate
    00:00 +8°C° 0 mm 1 m/s 693 mmHg 96%
    01:00 +8°C° 0 mm 1 m/s 692 mmHg 96%
    02:00 +8°C° 0 mm 1 m/s 692 mmHg 96%
    03:00 +8°C° 0 mm 1 m/s 692 mmHg 96%
    04:00 +8°C° 0 mm 1 m/s 692 mmHg 95%
    05:00 +8°C° 0 mm 1 m/s 692 mmHg 94%
    06:00 +8°C° 0 mm 1 m/s 692 mmHg 93%
    07:00 +8°C° 0 mm 1 m/s 692 mmHg 92%
    08:00 +10°C° 0,1 mm 1 m/s 693 mmHg 86%
    09:00 +12°C° 0,1 mm 1 m/s 693 mmHg 80%
    10:00 +14°C° 0,1 mm 1 m/s 693 mmHg 74%
    11:00 +14°C° 0,1 mm 1 m/s 693 mmHg 71%
    12:00 +15°C° 0,1 mm 1 m/s 693 mmHg 68%
    13:00 +16°C° 0,1 mm 1 m/s 693 mmHg 66%
    14:00 +16°C° 0 mm 1 m/s 693 mmHg 69%
    15:00 +15°C° 0 mm 1 m/s 693 mmHg 73%
    16:00 +15°C° 0 mm 1 m/s 693 mmHg 77%
    17:00 +13°C° 0 mm 1 m/s 693 mmHg 82%
    18:00 +12°C° 0 mm 1 m/s 693 mmHg 87%
    19:00 +11°C° 0 mm 1 m/s 693 mmHg 92%
    20:00 +11°C° 0 mm 1 m/s 693 mmHg 93%
    21:00 +10°C° 0 mm 1 m/s 693 mmHg 94%
    22:00 +10°C° 0 mm 1 m/s 693 mmHg 94%
    23:00 +10°C° 0 mm 1 m/s 693 mmHg 95%

    27 Septembrie, Miercuri

    Timp Temperatura Precipitaţii Vânt Presiune Umiditate
    00:00 +10°C° 0 mm 1 m/s 693 mmHg 95%
    01:00 +9°C° 0 mm 1 m/s 693 mmHg 95%
    02:00 +9°C° 0 mm 1 m/s 693 mmHg 95%
    03:00 +9°C° 0 mm 1 m/s 693 mmHg 94%
    04:00 +9°C° 0 mm 1 m/s 693 mmHg 94%
    05:00 +9°C° 0 mm 1 m/s 693 mmHg 93%
    06:00 +10°C° 0 mm 1 m/s 693 mmHg 92%
    07:00 +10°C° 0 mm 1 m/s 694 mmHg 92%
    08:00 +12°C° 0 mm 1 m/s 694 mmHg 84%
    09:00 +14°C° 0 mm 1 m/s 695 mmHg 76%
    10:00 +18°C° 0 mm 1 m/s 695 mmHg 68%
    11:00 +18°C° 0,2 mm 1 m/s 695 mmHg 66%
    12:00 +19°C° 0,2 mm 1 m/s 695 mmHg 64%
    13:00 +20°C° 0,2 mm 1 m/s 695 mmHg 62%
    14:00 +19°C° 0,3 mm 1 m/s 695 mmHg 65%
    15:00 +19°C° 0,3 mm 1 m/s 695 mmHg 67%
    16:00 +18°C° 0,3 mm 1 m/s 695 mmHg 70%
    17:00 +15°C° 0,2 mm 1 m/s 695 mmHg 77%
    18:00 +13°C° 0,2 mm 1 m/s 694 mmHg 85%
    19:00 +10°C° 0,2 mm 0 m/s 694 mmHg 92%
    20:00 +11°C° 0,1 mm 1 m/s 694 mmHg 92%
    21:00 +11°C° 0,1 mm 1 m/s 695 mmHg 93%
    22:00 +10°C° 0,1 mm 1 m/s 695 mmHg 93%
    23:00 +10°C° 0,1 mm 1 m/s 695 mmHg 93%

    28 Septembrie, Joi

    Timp Temperatura Precipitaţii Vânt Presiune Umiditate
    00:00 +10°C° 0,1 mm 1 m/s 695 mmHg 93%
    01:00 +10°C° 0,1 mm 1 m/s 695 mmHg 93%
    02:00 +10°C° 0 mm 1 m/s 695 mmHg 93%
    03:00 +10°C° 0 mm 1 m/s 694 mmHg 93%
    04:00 +9°C° 0 mm 1 m/s 694 mmHg 93%
    05:00 +10°C° 0,1 mm 1 m/s 695 mmHg 92%
    06:00 +10°C° 0,1 mm 1 m/s 695 mmHg 91%
    07:00 +10°C° 0,1 mm 1 m/s 695 mmHg 91%
    08:00 +12°C° 0 mm 1 m/s 696 mmHg 84%
    09:00 +14°C° 0 mm 1 m/s 696 mmHg 77%
    10:00 +16°C° 0 mm 1 m/s 696 mmHg 70%
    11:00 +18°C° 0,2 mm 1 m/s 696 mmHg 68%
    12:00 +18°C° 0,2 mm 1 m/s 696 mmHg 65%
    13:00 +19°C° 0,2 mm 1 m/s 696 mmHg 63%
    14:00 +18°C° 0,4 mm 1 m/s 696 mmHg 66%
    15:00 +18°C° 0,4 mm 1 m/s 696 mmHg 68%
    16:00 +16°C° 0,4 mm 1 m/s 696 mmHg 71%
    17:00 +15°C° 0,3 mm 1 m/s 696 mmHg 77%
    18:00 +13°C° 0,3 mm 1 m/s 695 mmHg 83%
    19:00 +11°C° 0,3 mm 1 m/s 695 mmHg 90%
    20:00 +11°C° 0,1 mm 1 m/s 696 mmHg 90%
    21:00 +10°C° 0,1 mm 1 m/s 696 mmHg 91%
    22:00 +10°C° 0,1 mm 1 m/s 696 mmHg 92%
    23:00 +10°C° 0 mm 1 m/s 696 mmHg 93%
    Arată mai mult